Location: Biharia
(46.4333°N, 22.8000°E)
Time: 16:48:04
(UTC+00:00)

COSMOS 2251 DEB - Pass Details

Date: 16 August 2022
Orbit: 557 x 890 km, 74.0° (Epoch: 01 October)

Event Time Altitude Azimuth Distance (km) Brightness Sun altitude
Exits shadow 01:39:47 23° 185° (S) 1,296 ? -16.7°
Maximum altitude 01:42:22 65° 109° (ESE) 646 ? -16.3°
Drops below altitude 10° 01:46:27 10° 27° (NNE) 1,872 ? -15.8°
Sets 01:48:42 0° 25° (NNE) 2,793 ? -15.5°
